Home > Weather > Tartu > Past weeks

Flag for Estonia Past Weather in Tartu, Estonia — Yesterday and Last 2 Weeks

Now
59 °F

Cool.


Feels Like: 59 °F
Forecast: 54 / 75 °F
Wind: No wind

Location: Tartu/Ulenurme

Current Time: Jul 1, 2016 at 2:00:40 AM

Latest Report: Jul 1, 2016 at 12:50 AM


Visibility: N/A

Pressure: 29.98 "Hg

Humidity: 82%

Dew Point: 54 °F

Location of TartuLocation

Past Weather in Tartu — Graph

°F

Tartu Temperature Yesterday

Maximum temperature yesterday: 77 °F (at 1:50 PM)
Minimum temperature yesterday: 57 °F (at 4:50 AM)
Average temperature yesterday: 67 °F

High & Low Weather Summary for the Past Weeks

 TemperatureHumidityPressure
High88 °F (Jun 26, 2:50 PM)94% (Jun 16, 2:50 AM)30.30 "Hg (Jun 16, 2:50 AM)
Low54 °F (Jun 20, 1:50 AM)44% (Jun 28, 4:50 PM)29.42 "Hg (Jun 18, 2:50 AM)
Average66 °F74%29.94 "Hg
* Reported Jun 15 11:50 PM — Jun 30 11:50 PM, Tartu, Weather by CustomWeather, © 2016

Note: Actual official high and low records may vary slightly from our data, if they occured in-between our weather recording intervals... More about our weather records

Advertising

Tartu Weather History for the Previous 24 Hours

Scroll right to see more
 ConditionsComfort  
Time TempWeatherWind HumidityBarometerVisibility
11:50 PM
Thu, Jun 30
61 °FPassing clouds.No wind83%29.98 "HgN/A
10:50 PM63 °FMild.3 mph77%29.98 "HgN/A
9:50 PM68 °FPassing clouds.3 mph64%29.98 "HgN/A
8:50 PM70 °FMild.6 mph60%29.95 "HgN/A
7:50 PM72 °FMild.7 mph57%29.95 "HgN/A
6:50 PM73 °FMild.9 mph53%29.95 "HgN/A
5:50 PM73 °FSunny.6 mph65%29.92 "Hg10 mi
4:50 PM68 °FScattered clouds.6 mph78%29.92 "HgN/A
3:50 PM66 °FSprinkles. Broken clouds.7 mph78%29.95 "HgN/A
2:50 PM75 °FBroken clouds.7 mph54%29.92 "HgN/A
1:50 PM77 °FScattered clouds.10 mph51%29.92 "HgN/A
12:50 PM75 °FScattered clouds.8 mph54%29.92 "HgN/A
11:50 AM73 °FScattered clouds.6 mph65%29.95 "HgN/A
10:50 AM73 °FPassing clouds.9 mph57%29.95 "HgN/A
9:50 AM73 °FSunny.9 mph61%29.92 "Hg10 mi
8:50 AM72 °FSunny.9 mph65%29.95 "Hg10 mi
7:50 AM66 °FMild.7 mph73%29.92 "HgN/A
6:50 AM63 °FPassing clouds.3 mph83%29.95 "HgN/A
5:50 AM59 °FCool.3 mph88%29.95 "HgN/A
4:50 AM57 °FCool.3 mph94%29.95 "HgN/A
3:50 AM59 °FFog.2 mph88%29.95 "Hg1 mi
2:50 AM59 °FCool.2 mph88%29.95 "HgN/A
Weather by CustomWeather, © 2016

See weather overviewHow to use our weather pages